Regional Weather Roundup
Issued by NWS

Home | Current Version | Previous Version | Graphics & Text | Print | Product List | Glossary On
Versions: 1 2 3 4 5 6 7 8 9 10 11 12 13 14 15 16 17 18 19 20 21 22 23 24 25 26 27 28 29 30 31 32 33 34 35 36 37 38 39 40 41 42 43 44 45 46 47 48 49 50
000
ASUS43 KLMK 042302
RWRKY
KENTUCKY REGIONAL WEATHER ROUNDUP
NATIONAL WEATHER SERVICE LOUISVILLE KY
700 PM EDT TUE AUG 04 2015

NOTE "FAIR" INDICATES FEW OR NO CLOUDS BELOW 12,000 FEET
WITH NO SIGNIFICANT WEATHER AND/OR OBSTRUCTIONS TO VISIBILITY.

KYZ001>023-026-027-061>063-070>075-050000-
WESTERN AND SOUTH CENTRAL KENTUCKY

CITY           SKY/WX    TMP DP  RH WIND       PRES   REMARKS
PADUCAH        CLOUDY    87  77  72 SW3       29.93F HX  99
HENDERSON      CLOUDY    73  64  73 NW13      29.96S
OWENSBORO      TSTM      74  69  84 N7        29.98R
HOPKINSVILLE   MOSUNNY   89  72  56 W8        29.94F HX  97
BOWLING GREEN  PTSUNNY   90  69  50 NW5       29.96S HX  94
GLASGOW        NOT AVBL
$$

KYZ024-025-028>034-038-045-046-053-050000-
NORTH CENTRAL KENTUCKY

CITY           SKY/WX    TMP DP  RH WIND       PRES   REMARKS
LOUISVILLE/SDF PTSUNNY   86  68  54 NW9       29.95R
LOUISVILLE/LOU CLOUDY    86  69  56 NW5       29.97R HX  90
FORT KNOX      PTSUNNY   78  67  69 SE7       29.96S
$$

KYZ035>037-039>044-047>052-055>060-089>105-050000-
NORTHEAST KENTUCKY

CITY           SKY/WX    TMP DP  RH WIND       PRES   REMARKS
LEXINGTON      PTSUNNY   77  70  79 S9        30.01R
COVINGTON      PTSUNNY   80  60  50 NW8       29.99R
FRANKFORT      PTSUNNY   83  70  64 NW3       29.98R
$$

KYZ054-064>069-076>088-106>120-050000-
SOUTHEAST KENTUCKY

CITY           SKY/WX    TMP DP  RH WIND       PRES   REMARKS
JACKSON        CLOUDY    73  66  78 SE6       30.02R THUNDER HAZE
LONDON         CLOUDY    75  67  76 W3        30.04R
SOMERSET       NOT AVBL
MIDDLESBORO    CLOUDY    78  67  67 NE3       30.04R
MONTICELLO     CLOUDY    75  73  93 CALM      30.04S
$$




USA.gov is the U.S. government's official web portal to all federal, state and local government web resources and services.